K9RCP-20 Weather Reports


time (UTC)temp
C
wind
direction
speed
KPH
gust
KPH
rain 1hr
cm
rain 24hr
cm
rain mn
cm
humidity
%
barometer
mb
20260507191826 17 167 8.0 9.7 0.00 0.00 0.00 55 1017.2
20260507191322 17 106 6.4 6.4 0.00 0.00 0.00 53 1017.3
20260507190819 16 102 4.8 4.8 0.00 0.00 0.00 56 1017.4
20260507190318 17 102 9.7 11.3 0.00 0.00 0.00 54 1017.6
20260507185816 17 66 3.2 3.2 0.00 0.00 0.00 54 1017.3
20260507185313 17 160 3.2 6.4 0.00 0.00 0.00 54 1017.5
20260507184810 17 188 0.0 1.6 0.00 0.00 0.00 54 1017.5
20260507184308 17 161 3.2 4.8 0.00 0.00 0.00 54 1017.8
20260507183804 16 156 0.0 1.6 0.00 0.00 0.00 58 1017.5
20260507183302 16 120 4.8 4.8 0.00 0.00 0.00 57 1017.7
20260507182800 17 177 6.4 6.4 0.00 0.00 0.00 56 1017.7
20260507182300 17 180 1.6 3.2 0.00 0.00 0.00 55 1017.8
20260507181757 15 160 0.0 0.0 0.00 0.00 0.00 58 1017.9
20260507181253 16 121 0.0 0.0 0.00 0.00 0.00 60 1017.9
20260507180749 16 289 6.4 9.7 0.00 0.00 0.00 61 1018.0
20260507180247 15 195 1.6 3.2 0.00 0.00 0.00 61 1018.0
20260507175742 15 256 6.4 9.7 0.00 0.00 0.00 61 1018.1
20260507175239 15 14 3.2 4.8 0.00 0.00 0.00 60 1018.0
20260507174736 15 271 6.4 6.4 0.00 0.00 0.00 59 1018.1
20260507174235 15 100 1.6 3.2 0.00 0.00 0.00 64 1018.0
20260507173732 15 99 1.6 3.2 0.00 0.00 0.00 62 1017.9
20260507173229 15 32 1.6 1.6 0.00 0.00 0.00 63 1018.2
20260507172725 15 32 4.8 4.8 0.00 0.00 0.00 62 1018.2
20260507172222 15 99 1.6 1.6 0.00 0.00 0.00 62 1018.2
20260507171722 15 173 3.2 4.8 0.00 0.00 0.00 64 1018.4
20260507171220 15 46 1.6 1.6 0.00 0.00 0.00 64 1018.3
20260507170716 15 30 1.6 3.2 0.00 0.00 0.00 64 1018.3
20260507170214 13 289 3.2 6.4 0.00 0.00 0.00 65 1018.4
20260507165709 13 44 3.2 3.2 0.00 0.00 0.00 67 1018.2
20260507165206 14 19 4.8 6.4 0.00 0.00 0.00 66 1018.3
20260507164702 13 10 4.8 6.4 0.00 0.00 0.00 65 1018.2
20260507164159 13 18 3.2 4.8 0.00 0.00 0.00 66 1018.3
20260507163656 13 253 3.2 4.8 0.00 0.00 0.00 67 1018.3
20260507163154 13 30 3.2 4.8 0.00 0.00 0.00 68 1018.3
20260507162649 13 232 6.4 9.7 0.00 0.00 0.00 67 1018.3
20260507162146 12 24 3.2 4.8 0.00 0.00 0.00 68 1018.4
20260507161642 12 25 4.8 4.8 0.00 0.00 0.00 69 1018.5
20260507161139 13 28 3.2 4.8 0.00 0.00 0.00 68 1018.4
20260507160635 13 16 1.6 3.2 0.00 0.00 0.00 68 1018.4
20260507160132 13 1 6.4 9.7 0.00 0.00 0.00 68 1018.5
20260507155627 12 5 3.2 4.8 0.00 0.00 0.00 69 1018.3
20260507155124 12 349 3.2 4.8 0.00 0.00 0.00 69 1018.2
20260507154621 12 19 3.2 4.8 0.00 0.00 0.00 69 1018.3
20260507154119 12 25 4.8 6.4 0.00 0.00 0.00 69 1018.2
20260507153615 12 4 3.2 3.2 0.00 0.00 0.00 69 1018.1
20260507153111 12 29 1.6 1.6 0.00 0.00 0.00 70 1018.4
20260507152608 12 31 4.8 4.8 0.00 0.00 0.00 70 1018.1
20260507152104 12 4 1.6 3.2 0.00 0.00 0.00 71 1018.1
20260507151600 12 35 3.2 3.2 0.00 0.00 0.00 71 1018.3
20260507151057 12 9 6.4 6.4 0.00 0.00 0.00 71 1018.2
20260507150554 12 21 4.8 4.8 0.00 0.00 0.00 72 1018.4
20260507150051 12 21 3.2 3.2 0.00 0.00 0.00 72 1018.4
20260507145546 11 21 1.6 3.2 0.00 0.00 0.00 72 1018.3
20260507145044 12 25 1.6 3.2 0.00 0.00 0.00 72 1018.3
20260507144540 12 23 1.6 3.2 0.00 0.00 0.00 72 1018.3
20260507144038 11 24 1.6 3.2 0.00 0.00 0.00 72 1018.3
20260507143535 11 1 1.6 1.6 0.00 0.00 0.00 72 1018.4
20260507143032 11 1 4.8 4.8 0.00 0.00 0.00 72 1018.4
20260507142527 11 21 0.0 1.6 0.00 0.00 0.00 72 1018.3
20260507142025 11 20 0.0 1.6 0.00 0.00 0.00 73 1018.2
20260507141520 11 20 3.2 4.8 0.00 0.00 0.00 73 1018.3
20260507141012 11 20 3.2 3.2 0.00 0.00 0.00 74 1018.1
20260507140508 11 20 3.2 4.8 0.00 0.00 0.00 74 1018.1
20260507140006 11 20 1.6 1.6 0.00 0.00 0.00 74 1018.0
20260507135502 11 29 1.6 3.2 0.00 0.00 0.00 74 1018.1
20260507134959 11 20 3.2 4.8 0.00 0.00 0.00 74 1018.0
20260507134456 11 34 1.6 1.6 0.00 0.00 0.00 74 1017.7
20260507133952 11 24 0.0 1.6 0.00 0.00 0.00 75 1017.9
20260507133448 11 24 0.0 1.6 0.00 0.00 0.00 75 1017.7
20260507132947 11 21 0.0 0.0 0.00 0.00 0.00 75 1017.8
20260507132442 11 20 3.2 3.2 0.00 0.00 0.00 74 1017.9
20260507131939 11 21 1.6 1.6 0.00 0.00 0.00 75 1017.8
20260507131436 11 15 1.6 3.2 0.00 0.00 0.00 75 1017.9
20260507130933 11 21 1.6 3.2 0.00 0.00 0.00 75 1017.9
20260507130430 11 21 1.6 1.6 0.00 0.00 0.00 75 1017.8
20260507125929 11 21 3.2 4.8 0.00 0.00 0.00 75 1017.8
20260507125426 11 4 1.6 3.2 0.00 0.00 0.00 74 1017.8
20260507124924 11 24 0.0 1.6 0.00 0.00 0.00 75 1017.8
20260507124419 11 20 0.0 0.0 0.00 0.00 0.00 74 1018.0
20260507123918 11 24 1.6 1.6 0.00 0.00 0.00 74 1017.8
20260507123415 11 0 1.6 3.2 0.00 0.00 0.00 74 1018.1
20260507122912 11 20 0.0 0.0 0.00 0.00 0.00 74 1017.7
20260507122407 11 19 3.2 4.8 0.00 0.00 0.00 73 1018.0
20260507121903 11 29 1.6 1.6 0.00 0.00 0.00 74 1018.1
20260507121358 11 20 0.0 0.0 0.00 0.00 0.00 74 1018.0
20260507120855 11 20 0.0 1.6 0.00 0.00 0.00 75 1018.1
20260507120352 11 13 3.2 3.2 0.00 0.00 0.00 75 1018.0
20260507115848 11 20 3.2 3.2 0.00 0.00 0.00 75 1018.2
20260507115344 11 20 1.6 1.6 0.00 0.00 0.00 75 1018.1
20260507114839 11 16 3.2 3.2 0.00 0.00 0.00 75 1018.1
20260507114337 11 357 4.8 4.8 0.00 0.00 0.00 74 1018.3
20260507113834 11 359 1.6 1.6 0.00 0.00 0.00 74 1018.4
20260507113331 11 20 1.6 3.2 0.00 0.00 0.00 74 1018.2
20260507112829 11 20 0.0 0.0 0.00 0.00 0.00 75 1018.4
20260507112325 11 20 1.6 1.6 0.00 0.00 0.00 75 1018.3
20260507111824 11 21 0.0 1.6 0.00 0.00 0.00 75 1018.2
20260507111320 11 20 1.6 1.6 0.00 0.00 0.00 75 1018.4
20260507110816 11 20 1.6 1.6 0.00 0.00 0.00 74 1018.5
20260507110313 12 19 1.6 3.2 0.00 0.00 0.00 74 1018.2
20260507105810 12 20 1.6 3.2 0.00 0.00 0.00 74 1018.2
20260507105307 12 23 3.2 3.2 0.00 0.00 0.00 73 1018.3
20260507104803 11 26 1.6 3.2 0.00 0.00 0.00 74 1018.5
20260507104259 12 20 1.6 3.2 0.00 0.00 0.00 74 1018.5
20260507103755 12 19 3.2 4.8 0.00 0.00 0.00 74 1018.4
20260507103252 12 20 4.8 4.8 0.00 0.00 0.00 74 1018.5
20260507102748 12 24 1.6 1.6 0.00 0.00 0.00 74 1018.6
20260507102245 12 16 3.2 4.8 0.00 0.00 0.00 74 1018.5
20260507101741 12 22 3.2 3.2 0.00 0.00 0.00 75 1018.5
20260507101236 12 21 1.6 1.6 0.00 0.00 0.00 75 1018.4
20260507100735 12 9 4.8 4.8 0.00 0.00 0.00 75 1018.6
20260507100233 12 21 3.2 3.2 0.00 0.00 0.00 75 1018.6
20260507095730 12 12 4.8 4.8 0.00 0.00 0.00 75 1018.5
20260507095226 12 23 3.2 3.2 0.00 0.00 0.00 75 1018.6
20260507094723 12 352 6.4 9.7 0.00 0.00 0.00 75 1018.7
20260507094220 12 12 3.2 4.8 0.00 0.00 0.00 75 1018.6
20260507093717 12 10 3.2 4.8 0.00 0.00 0.00 75 1018.6
20260507093215 12 12 0.0 0.0 0.00 0.00 0.00 75 1018.5
20260507092712 12 16 3.2 3.2 0.00 0.00 0.00 75 1018.7
20260507092209 12 14 3.2 3.2 0.00 0.00 0.00 75 1018.8
20260507091705 12 14 0.0 0.0 0.00 0.00 0.00 75 1018.9
20260507091202 12 359 3.2 3.2 0.00 0.00 0.00 74 1018.7
20260507090657 12 10 1.6 3.2 0.00 0.00 0.00 74 1018.8
20260507090154 12 12 3.2 3.2 0.00 0.00 0.00 75 1018.8
20260507085651 12 80 3.2 4.8 0.00 0.00 0.00 75 1018.9
20260507085148 12 80 0.0 1.6 0.00 0.00 0.00 75 1019.0
20260507084645 12 80 3.2 3.2 0.00 0.00 0.00 75 1018.9
20260507084141 12 23 3.2 3.2 0.00 0.00 0.00 75 1018.8
20260507083638 12 14 0.0 1.6 0.00 0.00 0.00 76 1018.8
20260507083135 12 14 0.0 0.0 0.00 0.00 0.00 76 1019.0
20260507082631 12 11 1.6 3.2 0.00 0.00 0.00 76 1019.0
20260507082128 12 14 0.0 1.6 0.00 0.00 0.00 76 1018.9
20260507081624 12 11 3.2 3.2 0.00 0.00 0.00 76 1018.8
20260507081121 12 14 3.2 3.2 0.00 0.00 0.00 75 1018.9
20260507080617 12 0 1.6 3.2 0.00 0.00 0.00 75 1018.7
20260507080114 12 9 1.6 3.2 0.00 0.00 0.00 75 1019.1
20260507075608 12 356 1.6 3.2 0.00 0.00 0.00 75 1018.8
20260507075105 12 11 1.6 1.6 0.00 0.00 0.00 75 1018.8
20260507074602 12 11 3.2 3.2 0.00 0.00 0.00 75 1019.0
20260507074101 12 8 3.2 6.4 0.00 0.00 0.00 76 1018.9
20260507073556 12 9 6.4 6.4 0.00 0.00 0.00 76 1018.9
20260507073053 12 352 3.2 3.2 0.00 0.00 0.00 76 1018.9
20260507072550 13 353 3.2 4.8 0.00 0.00 0.00 76 1018.6
20260507072047 12 2 1.6 1.6 0.00 0.00 0.00 76 1018.8
20260507071545 13 8 3.2 3.2 0.00 0.00 0.00 75 1019.0
20260507071041 13 11 1.6 3.2 0.00 0.00 0.00 76 1018.7
20260507070538 13 13 1.6 3.2 0.00 0.00 0.00 76 1018.6
20260507070035 13 344 1.6 3.2 0.00 0.00 0.00 76 1018.8
20260507065532 13 3 3.2 3.2 0.00 0.00 0.00 76 1018.7
20260507065029 13 1 4.8 4.8 0.00 0.00 0.00 76 1018.7
20260507064527 13 0 1.6 3.2 0.00 0.00 0.00 76 1018.6
20260507064025 13 20 3.2 3.2 0.00 0.00 0.00 76 1018.5
20260507063522 13 0 3.2 4.8 0.00 0.00 0.00 76 1018.7
20260507063020 13 329 8.0 12.9 0.00 0.00 0.00 76 1018.9
20260507062516 13 10 1.6 1.6 0.00 0.00 0.00 75 1018.7
20260507062014 13 357 0.0 1.6 0.00 0.00 0.00 76 1018.9
20260507061511 13 17 0.0 0.0 0.00 0.00 0.00 76 1018.9
20260507061009 13 17 1.6 3.2 0.00 0.00 0.00 76 1018.7
20260507060506 13 15 1.6 3.2 0.00 0.00 0.00 77 1018.8
20260507060004 13 25 3.2 4.8 0.00 0.00 0.00 77 1018.5
20260507055458 13 356 0.0 1.6 0.00 0.00 0.00 77 1018.5
20260507054955 13 15 8.0 9.7 0.00 0.00 0.00 77 1018.6
20260507054450 14 16 1.6 1.6 0.00 0.00 0.00 76 1018.4
20260507053948 14 16 1.6 1.6 0.00 0.00 0.00 76 1018.6
20260507053446 14 17 0.0 1.6 0.00 0.00 0.00 76 1018.4
20260507052944 14 15 1.6 1.6 0.00 0.00 0.00 76 1018.2
20260507052441 14 22 6.4 6.4 0.00 0.00 0.00 75 1018.4
20260507051938 14 13 6.4 6.4 0.00 0.00 0.00 75 1018.6
20260507051436 15 13 1.6 3.2 0.00 0.00 0.00 74 1018.6
20260507050932 15 15 6.4 6.4 0.00 0.00 0.00 75 1018.5
20260507050429 15 36 1.6 1.6 0.00 0.00 0.00 75 1018.6
20260507045926 15 11 3.2 4.8 0.00 0.00 0.00 74 1018.5
20260507045422 15 15 1.6 3.2 0.00 0.00 0.00 75 1018.6
20260507044920 15 26 3.2 3.2 0.00 0.00 0.00 75 1018.7
20260507044416 15 36 3.2 4.8 0.00 0.00 0.00 75 1018.3
20260507043912 15 16 1.6 1.6 0.00 0.00 0.00 74 1018.5
20260507043409 15 25 1.6 3.2 0.00 0.00 0.00 77 1018.4
20260507042905 15 92 3.2 4.8 0.00 0.00 0.00 77 1018.4
20260507042402 15 46 1.6 3.2 0.00 0.00 0.00 78 1018.3
20260507041852 15 94 3.2 3.2 0.00 0.00 0.00 77 1018.4
20260507041349 14 94 1.6 1.6 0.00 0.00 0.00 78 1018.3
20260507040847 15 94 1.6 1.6 0.00 0.00 0.00 77 1018.0
20260507040342 15 106 1.6 1.6 0.00 0.00 0.00 78 1018.0
20260507035838 15 130 3.2 3.2 0.00 0.00 0.00 78 1017.8
20260507035334 15 127 4.8 4.8 0.00 0.00 0.00 77 1018.0
20260507034832 15 118 3.2 4.8 0.00 0.00 0.00 77 1017.9
20260507034329 15 94 3.2 4.8 0.00 0.00 0.00 77 1017.7
20260507033827 15 108 1.6 3.2 0.00 0.00 0.00 76 1017.5
20260507033325 15 109 0.0 1.6 0.00 0.00 0.00 75 1017.7
20260507032821 15 152 1.6 1.6 0.00 0.00 0.00 75 1017.6
20260507032317 15 151 1.6 1.6 0.00 0.00 0.00 74 1017.4
20260507031814 15 164 3.2 4.8 0.00 0.00 0.00 74 1017.5
20260507031311 16 163 3.2 4.8 0.00 0.00 0.00 73 1017.3
20260507030807 15 164 0.0 1.6 0.00 0.00 0.00 73 1017.4
20260507030305 16 173 3.2 3.2 0.00 0.00 0.00 73 1017.3
20260507025802 16 172 3.2 4.8 0.00 0.00 0.00 71 1017.2
20260507025259 16 173 4.8 4.8 0.00 0.00 0.00 72 1017.0
20260507024757 16 158 3.2 4.8 0.00 0.00 0.00 71 1017.1
20260507024254 16 176 3.2 4.8 0.00 0.00 0.00 70 1017.0
20260507023749 16 148 3.2 4.8 0.00 0.00 0.00 71 1016.9
20260507023246 16 137 4.8 6.4 0.00 0.00 0.00 72 1016.9
20260507022744 16 155 3.2 4.8 0.00 0.00 0.00 69 1017.0
20260507022240 17 154 1.6 1.6 0.00 0.00 0.00 69 1016.9
20260507021736 17 173 1.6 3.2 0.00 0.00 0.00 68 1016.9
20260507021232 17 106 3.2 3.2 0.00 0.00 0.00 67 1017.2
20260507020730 17 96 3.2 3.2 0.00 0.00 0.00 68 1016.8
20260507020226 17 153 8.0 11.3 0.00 0.00 0.00 67 1016.9
20260507015724 17 174 6.4 6.4 0.00 0.00 0.00 68 1017.0
20260507015221 18 166 8.0 9.7 0.00 0.00 0.00 68 1017.2
20260507014718 18 176 9.7 12.9 0.00 0.00 0.00 67 1017.0
20260507014214 18 171 6.4 9.7 0.00 0.00 0.00 67 1016.9
20260507013711 19 199 4.8 6.4 0.00 0.00 0.00 65 1017.1
20260507013208 19 200 8.0 9.7 0.00 0.00 0.00 66 1017.2
20260507012706 20 187 3.2 4.8 0.00 0.00 0.00 62 1017.2
20260507012201 19 147 4.8 6.4 0.00 0.00 0.00 64 1016.9
20260507011659 20 196 4.8 4.8 0.00 0.00 0.00 62 1016.9
20260507011155 19 173 6.4 9.7 0.00 0.00 0.00 64 1016.9
20260507010654 20 137 3.2 3.2 0.00 0.00 0.00 62 1016.9
20260507010150 20 181 4.8 6.4 0.00 0.00 0.00 60 1016.7
20260507005648 21 170 6.4 11.3 0.00 0.00 0.00 58 1016.8
20260507005144 21 220 6.4 9.7 0.00 0.00 0.00 58 1017.0
20260507004641 21 234 3.2 4.8 0.00 0.00 0.00 57 1017.1
20260507004139 21 187 6.4 9.7 0.00 0.00 0.00 58 1016.7
20260507003635 21 303 8.0 11.3 0.00 0.00 0.00 57 1017.0
20260507003130 21 287 3.2 4.8 0.00 0.00 0.00 58 1017.0
20260507002627 21 304 8.0 12.9 0.00 0.00 0.00 58 1016.9
20260507002122 22 275 6.4 9.7 0.00 0.00 0.00 57 1017.1
20260507001619 22 276 1.6 3.2 0.00 0.00 0.00 57 1016.8
20260507001117 22 272 3.2 4.8 0.00 0.00 0.00 56 1016.9
20260507000613 22 101 9.7 12.9 0.00 0.00 0.00 62 1016.7
20260507000108 22 242 4.8 4.8 0.00 0.00 0.00 56 1016.8
20260506235606 22 240 4.8 4.8 0.00 0.00 0.00 56 1016.8
20260506235106 22 197 4.8 4.8 0.00 0.00 0.00 55 1016.9
20260506234604 22 244 4.8 6.4 0.00 0.00 0.00 57 1016.9
20260506234101 22 269 6.4 6.4 0.00 0.00 0.00 55 1016.6
20260506233558 22 206 4.8 6.4 0.00 0.00 0.00 55 1016.9
20260506233054 22 258 8.0 12.9 0.00 0.00 0.00 55 1017.0
20260506232551 22 168 8.0 9.7 0.00 0.00 0.00 61 1016.7
20260506232046 21 264 4.8 6.4 0.00 0.00 0.00 61 1016.7
20260506231544 22 144 4.8 6.4 0.00 0.00 0.00 58 1017.0
20260506231042 23 102 3.2 4.8 0.00 0.00 0.00 58 1016.9
20260506230538 23 176 1.6 1.6 0.00 0.00 0.00 54 1017.0
20260506230035 22 304 1.6 3.2 0.00 0.00 0.00 55 1016.9
20260506225532 22 307 8.0 9.7 0.00 0.00 0.00 57 1017.2
20260506225028 23 173 4.8 6.4 0.00 0.00 0.00 54 1017.0
20260506224525 22 234 3.2 3.2 0.00 0.00 0.00 59 1017.2
20260506224022 21 141 1.6 1.6 0.00 0.00 0.00 61 1017.3
20260506223517 21 146 8.0 11.3 0.00 0.00 0.00 60 1017.3
20260506223014 21 149 3.2 4.8 0.00 0.00 0.00 61 1017.5
20260506222511 21 160 6.4 6.4 0.00 0.00 0.00 64 1017.3
20260506222008 21 157 9.7 12.9 0.00 0.00 0.00 65 1017.5
20260506221505 22 169 4.8 9.7 0.00 0.00 0.00 59 1017.7
20260506221003 22 141 4.8 9.7 0.00 0.00 0.00 59 1017.5
20260506220458 22 138 1.6 1.6 0.00 0.00 0.00 55 1017.4
20260506215955 22 145 8.0 11.3 0.00 0.00 0.00 59 1017.4
20260506215451 22 181 8.0 11.3 0.00 0.00 0.00 58 1017.5
20260506214947 22 154 3.2 4.8 0.00 0.00 0.00 60 1017.5
20260506214444 21 143 4.8 6.4 0.00 0.00 0.00 63 1017.4
20260506213942 20 119 11.3 14.5 0.00 0.00 0.00 65 1017.3
20260506213439 21 182 8.0 9.7 0.00 0.00 0.00 66 1017.4
20260506212936 20 136 4.8 4.8 0.00 0.00 0.00 64 1017.7
20260506212432 21 144 8.0 11.3 0.00 0.00 0.00 62 1017.6
20260506211932 20 148 3.2 3.2 0.00 0.00 0.00 63 1017.7
20260506211429 20 82 0.0 1.6 0.00 0.00 0.00 64 1017.9
20260506210926 20 259 1.6 3.2 0.00 0.00 0.00 63 1018.1
20260506210422 20 216 4.8 4.8 0.00 0.00 0.00 63 1017.9
20260506205920 21 89 1.6 3.2 0.00 0.00 0.00 64 1018.0
20260506205415 20 228 3.2 4.8 0.00 0.00 0.00 64 1018.0
20260506204912 20 95 1.6 3.2 0.00 0.00 0.00 67 1018.1
20260506204410 21 192 8.0 11.3 0.00 0.00 0.00 67 1017.8
20260506203907 20 102 8.0 9.7 0.00 0.00 0.00 68 1017.9
20260506203404 19 148 6.4 9.7 0.00 0.00 0.00 72 1017.9
20260506202901 19 152 8.0 11.3 0.00 0.00 0.00 71 1017.9
20260506202358 19 244 6.4 6.4 0.00 0.00 0.00 71 1018.0
20260506201855 19 301 6.4 9.7 0.00 0.00 0.00 69 1018.0
20260506201352 19 301 6.4 9.7 0.00 0.00 0.00 69 1017.9
20260506200849 -17 0.0 0.0 0.00 0.00 0.00 1017.8
20260506200345 -17 0.0 0.0 0.00 0.00 0.00 1018.2
20260506195841 -17 0.0 0.0 0.00 0.00 0.00 1018.1
20260506195338 -17 0.0 0.0 0.00 0.00 0.00 1018.4
20260506194835 -17 0.0 0.0 0.00 0.00 0.00 1018.5
20260506194332 18 211 3.2 4.8 0.00 0.00 0.00 71 1018.3
20260506193829 18 211 3.2 4.8 0.00 0.00 0.00 71 1018.7
20260506193326 18 195 1.6 3.2 0.00 0.00 0.00 73 1018.5
20260506192822 17 139 0.0 0.0 0.00 0.00 0.00 73 1018.3
20260506192319 17 188 4.8 4.8 0.00 0.00 0.00 74 1018.4